STARLINK-1957 (47558 NORAD) Tracking and Keplerian Element Data

This shows tracking and keplerian element data for the satellite.

Feedback or suggestion? Click here.




ElementValue
Catalog47558
NameSTARLINK-1957
Epoch Orbit177
Epoch Day101.91668981
Epoch Year2021
RAAN157.5292
Inclination53.0521
Eccentricity0.0004144
Argument of Perigee10.9042
Mean Anonmoly244.1093
Mean Motion15.62796305
Decay Rate0.00032695
L11 47558U 21009L 21101.91668981 .00032695 00000-0 36077-3 0 9995
L22 47558 53.0521 157.5292 0004144 10.9042 244.1093 15.62796305 1779

Live tracking and technical data element details for STARLINK-1957 (NORAD 47558). STARLINK-1957 can be tracked NOW for your location showing map with azimuth and elevation plus other details from your city location.

Track the satellite on the map from your city or location and see movement details for azimuth, elevation, latitude, longitude, range, height, and movement on the map or in text.







IsCatalogInMostPopularTable: catalog: 47558, numindb: 12
Update: records affected: 1



GetName: 47558 STARLINK-1957

Hit Count: updated at: Tue, 13 Apr 2021 04:07:55 GMT